Location: Kalberh�ni
(46.4610°N, 7.2453°E)
Time: 14:12:53
(UTC+00:00)

Cosmos 1606 Rocket - Pass Details

Date: 19 October 2021
Orbit: 602 x 633 km, 82.5° (Epoch: 04 December)

Event Time Altitude Azimuth Distance (km) Brightness Sun altitude
Rises 04:58:05 0° 8° (N) 2,922 7.1 -10.3°
Reaches altitude 10° 05:01:35 10° 37° (NE) 2,001 6.6 -9.7°
Maximum altitude 05:03:36 13° 64° (ENE) 1,811 6.9 -9.4°
Drops below altitude 10° 05:05:35 10° 91° (E) 1,985 7.9 -9.1°
Sets 05:09:01 0° 120° (ESE) 2,876 8.3 -8.5°
